• Join FlightAware (Why Join?)
  • Login
  • US Flag GB Flag 
12:02 EDT


 

Airport Tracker/Info


-or-


 

Live Flight TrackerFlight Track Log ✈ SWA1231 ✈ 21-Apr-2013 ✈ KCHS - KMDW

Flight Track Log - Related Links

Times and Time Zones

All times are in EDT time to prevent confusion due to time zone crossing. See the SWA1231 flight status page for this flight to view local times or setup timezone preferences in your user account.

Time Position Orientation Groundspeed Altitude Reporting Facility
EDT Latitude Longitude Course Direction KTS MPH feet Rate Location/Type
08:51 32.9319 -80.0439 338° Northwest 168 193 2,000  Level Jacksonville Center
08:52 32.9847 -80.0694 338° Northwest 206 237 4,400 2,640 Climbing Jacksonville Center
08:53 33.0522 -80.1069 335° Northwest 233 268 7,300 3,000 Climbing Jacksonville Center
08:54 33.1222 -80.1544 330° Northwest 262 302 10,500 2,580 Climbing Jacksonville Center
08:55 33.1925 -80.2267 319° Northwest 303 349 12,500 2,400 Climbing Jacksonville Center
08:56 33.2631 -80.2967 320° Northwest 340 391 15,300 2,760 Climbing Jacksonville Center
08:57 33.3397 -80.3764 319° Northwest 358 412 18,100 2,820 Climbing Jacksonville Center
08:58 33.4228 -80.4586 320° Northwest 370 426 21,000 2,580 Climbing Jacksonville Center
08:59 33.5058 -80.5436 320° Northwest 381 438 23,300 2,160 Climbing Jacksonville Center
09:00 33.5950 -80.6336 320° Northwest 394 453 25,400 2,100 Climbing Jacksonville Center
09:01 33.6842 -80.7236 320° Northwest 410 472 27,600 2,100 Climbing Jacksonville Center
09:02 33.7733 -80.8139 320° Northwest 415 478 29,600 1,980 Climbing Jacksonville Center
09:03 33.8439 -80.9222 308° West 415 478 31,600 1,740 Climbing Jacksonville Center
09:04 33.9167 -81.0281 310° West 415 478 33,100 1,740 Climbing Jacksonville Center
09:05 33.9806 -81.1319 307° West 404 465 35,100 1,140 Climbing Jacksonville Center
09:07 34.1883 -81.3467 320° Northwest 397 457 37,000 540 Climbing Atlanta Center
09:08 34.2758 -81.4344 320° Northwest 403 464 37,000  Level Atlanta Center
09:09 34.3656 -81.5247 320° Northwest 408 470 37,000  Level Atlanta Center
09:10 34.4547 -81.6128 321° Northwest 414 476 37,000 180 Level Atlanta Center
09:11 34.5400 -81.7036 319° Northwest 414 476 37,400 480 Climbing Atlanta Center
09:12 34.6317 -81.7969 320° Northwest 414 476 38,000 300 Climbing Atlanta Center
09:13 34.7122 -81.8808 319° Northwest 414 476 38,000  Level Atlanta Center
09:14 34.8017 -81.9697 321° Northwest 414 476 38,000  Level Atlanta Center
09:15 34.8886 -82.0586 320° Northwest 414 476 38,000  Level Atlanta Center
09:16 34.9756 -82.1528 318° Northwest 420 483 38,000  Level Atlanta Center
09:17 35.0731 -82.2572 319° Northwest 420 483 38,000  Level Atlanta Center
09:18 35.1494 -82.3344 320° Northwest 408 470 38,000  Level Atlanta Center
09:19 35.2489 -82.4417 319° Northwest 421 484 38,000  Level Atlanta Center
09:20 35.3356 -82.5317 320° Northwest 416 479 38,000  Level Atlanta Center
09:21 35.4117 -82.6067 321° Northwest 411 473 38,000  Level Atlanta Center
09:22 35.5067 -82.7097 319° Northwest 406 467 38,000  Level Atlanta Center
09:23 35.5931 -82.8003 320° Northwest 412 474 38,000  Level Atlanta Center
09:24 35.6689 -82.8833 318° Northwest 407 468 38,000  Level Atlanta Center
09:25 35.7575 -82.9767 319° Northwest 419 482 38,000  Level Atlanta Center
09:26 35.8481 -83.0703 320° Northwest 419 482 38,000  Level Atlanta Center
09:27 35.9342 -83.1642 319° Northwest 419 482 38,000  Level Atlanta Center
09:28 36.0244 -83.2608 319° Northwest 419 482 38,000  Level Atlanta Center
09:29 36.1147 -83.3575 319° Northwest 419 482 38,000  Level Atlanta Center
09:30 36.2028 -83.4547 318° Northwest 425 489 38,000  Level Atlanta Center
09:31 36.2931 -83.5519 319° Northwest 425 489 38,000  Level Atlanta Center
09:33 36.4600 -83.7292 320° Northwest 422 486 38,000  Level Indianapolis Center
09:34 36.5461 -83.8239 319° Northwest 423 487 38,000  Level Indianapolis Center
09:35 36.6353 -83.9208 319° Northwest 422 486 38,000  Level Indianapolis Center
09:36 36.7269 -84.0142 321° Northwest 427 491 38,000  Level Indianapolis Center
09:37 36.8408 -84.0744 337° Northwest 438 504 38,000  Level Indianapolis Center
09:38 36.9742 -84.1425 338° Northwest 442 509 38,100 480 Climbing Indianapolis Center
09:39 37.0917 -84.2028 338° Northwest 451 519 39,000 420 Climbing Indianapolis Center
09:40 37.2061 -84.2614 338° Northwest 442 509 39,000  Level Indianapolis Center
09:41 37.3206 -84.3211 337° Northwest 445 512 39,000  Level Indianapolis Center
09:42 37.4350 -84.3792 338° Northwest 442 509 39,000  Level Indianapolis Center
09:43 37.5494 -84.4386 338° Northwest 443 510 39,000  Level Indianapolis Center
09:44 37.6642 -84.4981 338° Northwest 445 512 39,000  Level Indianapolis Center
09:46 37.7767 -84.5581 337° Northwest 438 504 39,000  Level Indianapolis Center
09:47 37.9092 -84.6272 338° Northwest 439 505 39,000  Level Indianapolis Center
09:48 38.0233 -84.6869 338° Northwest 443 510 39,000  Level Indianapolis Center
09:49 38.1383 -84.7458 338° Northwest 447 514 39,000  Level Indianapolis Center
09:50 38.2528 -84.8064 337° Northwest 443 510 39,000 -60 Level Indianapolis Center
09:51 38.3647 -84.8650 338° Northwest 437 503 38,900 -1,260 Descending Indianapolis Center
09:52 38.4764 -84.9244 337° Northwest 433 498 36,500 -1,920 Descending Indianapolis Center
09:53 38.5858 -84.9861 336° Northwest 430 495 35,000 -780 Descending Indianapolis Center
09:54 38.7064 -85.0503 337° Northwest 442 509 35,000  Level Indianapolis Center
09:55 38.8211 -85.1097 338° Northwest 443 510 35,000  Level Indianapolis Center
09:56 38.9353 -85.1717 337° Northwest 443 510 35,000 -300 Level Indianapolis Center
09:57 39.0483 -85.2342 337° Northwest 442 509 34,500 -540 Descending Indianapolis Center
09:58 39.1794 -85.3050 337° Northwest 440 506 33,900 -1,260 Descending Indianapolis Center
09:59 39.2936 -85.3669 337° Northwest 439 505 32,000 -1,980 Descending Indianapolis Center
10:00 39.4092 -85.4300 337° Northwest 444 511 29,900 -1,560 Descending Indianapolis Center
10:01 39.5236 -85.4942 337° Northwest 444 511 28,900 -540 Descending Indianapolis Center
10:02 39.6333 -85.5553 337° Northwest 430 495 28,900  Level Indianapolis Center
10:03 39.7422 -85.6142 337° Northwest 422 486 28,900 -240 Level Indianapolis Center
10:04 39.8506 -85.6767 336° Northwest 421 484 28,500 -1,500 Descending Indianapolis Center
10:05 39.9786 -85.7464 337° Northwest 422 486 25,900 -2,220 Descending Indianapolis Center
10:06 40.0817 -85.8047 337° Northwest 408 470 24,000 -1,140 Descending Indianapolis Center
10:07 40.1436 -85.8450 334° Northwest 398 458 24,000 -120 Level Chicago Center
10:09 40.3414 -85.9728 334° Northwest 395 455 23,700 -360 Descending Chicago Center
10:10 40.4386 -86.0350 334° Northwest 392 451 23,000 -720 Descending Chicago Center
10:11 40.5367 -86.0989 334° Northwest 392 451 22,300 -1,260 Descending Chicago Center
10:12 40.6306 -86.1600 334° Northwest 382 440 20,500 -1,800 Descending Chicago Center
10:13 40.7219 -86.2178 334° Northwest 369 425 18,600 -1,860 Descending Chicago Center
10:14 40.8158 -86.2800 333° Northwest 375 432 16,800 -2,280 Descending Chicago Center
10:15 40.9281 -86.3525 334° Northwest 372 428 14,000 -2,520 Descending Chicago Center
10:16 41.0167 -86.4117 333° Northwest 361 415 11,700 -1,500 Descending Chicago Center
10:17 41.0753 -86.5006 311° West 334 384 11,000 -780 Descending Chicago Center
10:18 41.1158 -86.5978 299° West 311 358 10,200 -540 Descending Chicago Center
10:19 41.1694 -86.6828 310° West 298 343 10,000 -120 Descending Chicago Center
10:20 41.2283 -86.7592 316° Northwest 298 343 10,000 -120 Level Chicago Center
10:21 41.2931 -86.8492 314° West 283 326 9,800 -540 Descending Chicago Center
10:22 41.3411 -86.9178 313° West 260 299 9,000 -660 Descending Chicago Center
10:23 41.3900 -86.9836 315° West 254 292 8,500 -840 Descending Chicago Center
10:24 41.4389 -87.0508 314° West 253 291 7,300 -1,140 Descending Chicago Center
10:25 41.4886 -87.1233 312° West 261 300 6,200 -1,020 Descending Chicago Center
10:26 41.5167 -87.1833 302° West 266 306 5,700 -1,260 Descending Chicago TRACON
10:27 41.5333 -87.2833 283° West 266 306 4,100 -840 Descending Chicago TRACON
10:28 41.5333 -87.3667 270° West 264 304 4,100 -180 Level Chicago TRACON
10:28 41.5461 -87.4192 288° West 264 304 3,900 -180 Descending Chicago Center
10:29 41.5575 -87.5153 279° West 263 303 3,900 -180 Level Chicago Center
10:30 41.5689 -87.6108 279° West 264 304 3,600 -540 Descending Chicago Center
10:31 41.5808 -87.7069 279° West 264 304 2,900 -360 Descending Chicago Center
10:32 41.6022 -87.7958 288° West 258 297 2,900 -120 Level Chicago Center
10:33 41.6422 -87.8808 302° West 236 272 2,700 -300 Descending Chicago Center
10:35 41.6928 -87.8664 12° North 201 231 2,400 -300 Descending Chicago Center
10:36 41.7306 -87.8250 39° Northeast 185 213 2,100 -300 Descending Chicago Center
10:37 41.7833 -87.8500 341° North 153 176 1,800 -240 Descending Chicago TRACON
10:38 41.8000 -87.8333 37° Northeast 135 155 1,600 -360 Descending Chicago TRACON
10:39 41.8000 -87.7833 90° East 133 153 1,200 -480 Descending Chicago TRACON